This demonstration page uses our WeatherBlox Daily Observations layout. Learn more.

Left ArrowRight Arrow

Hourly Observations for July 22, 2016

Temp ( °F °C ) Dew Point ( °F °C ) Humidity (%) Winds ( mph kmh ) Pressure ( in mb ) Visibility ( mi km ) Precip ( " mm )
12:03 am 00:03 Mostly Cloudy 77 25 64 17.8 64 64 SSE 16 26 29.97 1015 10 16 0.00 0.03
12:51 am 00:51 Cloudy with Light Rain 76 24.4 64 17.8 67 67 SSE 16 26 29.96 1014 10 16 0.00 0.03
1:15 am 01:15 Mostly Cloudy 78 25.6 62 16.7 58 58 E 7 11 29.97 1015 10 16 0.01 0.25
1:51 am 01:51 Mostly Cloudy with Light Rain 79 26.1 59 15 50 50 SSE 23 37 29.90 1013 10 16 0.01 0.25
2:51 am 02:51 Clear 83 28.3 57 13.9 41 41 VRB 3 6 29.89 1012 10 16 0.00 0.03
3:51 am 03:51 Mostly Clear 80 26.7 59 15 49 49 E 8 13 29.91 1013 10 16 0.00 0.00
4:51 am 04:51 Clear 76 24.4 63 17.2 64 64 S 9 15 29.93 1014 10 16 0.00 0.00
5:51 am 05:51 Sunny 76 24.4 62 16.7 62 62 NNW 5 7 29.93 1014 10 16 0.00 0.00
6:51 am 06:51 Sunny 80 26.7 64 17.8 58 58 N 3 6 29.93 1014 10 16 0.00 0.00
7:51 am 07:51 Sunny 84 28.9 60 15.6 44 44 NW 6 9 29.93 1014 10 16 0.00 0.00
8:51 am 08:51 Sunny 87 30.6 58 14.4 37 37 VRB 5 7 29.93 1014 10 16 0.00 0.00
9:51 am 09:51 Sunny 90 32.2 57 13.9 33 33 W 8 13 29.92 1013 10 16 0.00 0.00
10:51 am 10:51 Sunny 93 33.9 58 14.4 31 31 S 9 15 29.92 1013 10 16 0.00 0.00
11:51 am 11:51 Sunny 96 35.6 52 11.1 23 23 VRB 3 6 29.91 1013 10 16 0.00 0.00
12:51 pm 12:51 Sunny 99 37.2 52 11.1 21 21 S 9 15 29.87 1012 10 16 0.00 0.00
1:51 pm 13:51 Sunny 101 38.3 48 8.9 17 17 SW 6 9 29.82 1010 10 16 0.00 0.00
2:51 pm 14:51 Sunny 103 39.4 47 8.3 15 15 VRB 5 7 29.78 1009 10 16 0.00 0.00
3:51 pm 15:51 Sunny 102 38.9 47 8.3 15 15 Calm 29.76 1008 10 16 0.00 0.00
4:51 pm 16:51 Sunny 103 39.4 45 7.2 14 14 VRB 7 11 29.74 1007 10 16 0.00 0.00
5:51 pm 17:51 Sunny 103 39.4 48 8.9 16 16 SSW 7 11 29.73 1007 10 16 0.00 0.00
6:51 pm 18:51 Sunny 98 36.7 50 10 20 20 NE 20 31 29.75 1007 10 16 0.00 0.00
7:51 pm 19:51 Clear 95 35 48 8.9 20 20 N 6 9 29.76 1008 10 16 0.00 0.00
8:51 pm 20:51 Clear 91 32.8 52 11.1 26 26 WNW 13 20 29.78 1009 10 16 0.00 0.00
9:51 pm 21:51 Clear 88 31.1 53 11.7 30 30 NW 12 19 29.79 1009 10 16 0.00 0.00
10:51 pm 22:51 Clear 86 30 53 11.7 32 32 N 7 11 29.79 1009 10 16 0.00 0.00
11:51 pm 23:51 Clear 84 28.9 54 12.2 36 36 N 6 9 29.81 1009 10 16 0.00 0.00

Powered by AerisWeather